Theta_e
356 354 353 354 353 354 354 355 355 354 354 354 352 353 353 349 349 349 349 346 344 342 344 349 351 349 345 344 344 344 344 345 346 345 346 346 346 346 345 346 347 349 350 351 350 350 350 351 350 350 351 349 350 351 351 351 351 352 352 353 353 353 353 351 350 350 349 350 350 350 349 348 348 349 350 349 350 349 347 346 346 345 346 346 347
356 354 354 354 353 354 354 355 355 355 355 353 352 351 348 348 350 351 351 344 338 341 346 350 348 342 339 341 343 345 345 346 347 347 349 349 349 348 348 348 350 351 352 352 350 350 349 350 350 350 351 350 350 350 351 352 352 351 352 353 352 352 352 350 350 349 349 349 348 348 348 348 349 350 350 350 350 350 348 346 347 348 349 348 347
355 354 354 352 352 353 353 354 354 356 354 353 351 347 346 348 351 353 354 347 339 340 345 345 341 339 342 344 344 344 346 348 350 351 353 352 351 351 351 350 351 352 353 352 350 350 350 350 351 351 350 350 351 351 351 352 352 352 351 352 351 351 351 350 349 349 350 350 348 348 347 348 349 350 350 350 350 350 350 348 348 348 348 347 347
355 355 353 351 350 352 352 353 353 354 352 351 348 346 347 349 352 353 354 348 340 340 344 342 341 344 346 346 345 346 348 350 351 353 354 353 353 352 352 352 351 352 352 352 351 351 350 350 351 351 351 351 353 352 351 350 350 350 350 350 350 350 349 350 351 350 351 350 350 352 350 349 350 350 350 349 350 350 350 348 348 347 347 347 347
355 354 353 352 351 351 352 353 354 354 352 350 349 348 348 350 352 353 352 346 339 342 345 343 345 348 348 347 347 348 349 351 351 353 354 353 353 353 352 351 352 352 352 351 351 351 351 351 351 351 351 352 351 351 350 349 349 350 349 348 349 348 348 349 351 351 351 350 352 354 352 350 350 350 349 349 349 350 350 347 345 346 346 347 348
355 354 354 353 351 351 353 354 354 353 351 352 352 350 350 351 351 351 348 342 341 346 347 346 349 351 349 349 349 349 349 349 351 353 354 353 353 352 352 351 352 352 351 350 350 350 351 351 350 351 351 351 350 350 350 349 350 350 348 347 348 347 348 350 351 351 350 352 353 353 352 350 350 349 349 349 349 349 349 347 346 346 347 347 348
354 353 353 353 352 351 352 353 353 353 352 352 351 350 350 348 348 345 342 343 348 350 349 349 351 351 351 351 350 350 349 349 352 353 354 353 353 351 351 351 352 353 352 351 351 351 351 351 350 350 351 351 350 350 350 350 349 348 347 345 346 346 347 350 352 351 350 353 352 350 352 350 350 349 348 348 348 348 348 346 347 347 349 349 348
352 352 352 351 353 352 352 351 352 351 350 348 346 345 344 343 342 341 343 349 352 352 351 351 353 353 353 352 351 350 348 350 352 353 353 353 352 350 349 350 352 353 352 351 351 351 351 351 350 350 351 351 350 351 351 351 348 346 345 343 343 345 348 350 351 350 351 353 351 350 350 350 350 349 348 349 347 346 346 346 347 348 350 350 349
350 350 350 351 350 346 347 346 346 345 343 341 340 341 341 342 344 347 351 353 353 353 352 352 353 353 354 353 351 350 350 352 353 353 353 352 351 351 350 351 352 352 352 351 351 351 351 350 350 350 351 350 349 351 351 351 349 346 343 342 343 347 350 349 349 351 351 352 351 350 349 349 350 349 348 348 347 347 348 348 348 348 350 350 348
349 349 348 351 347 340 341 341 340 341 341 342 343 345 347 348 351 353 353 353 354 353 353 353 354 354 354 353 352 351 351 352 353 353 353 353 352 352 351 351 352 351 352 351 350 350 351 350 350 350 349 348 349 350 350 350 348 344 342 342 347 349 349 349 350 351 351 350 351 351 349 349 349 349 348 346 347 349 350 349 349 349 348 347 344
350 349 349 351 346 340 341 342 343 344 346 348 350 351 351 352 353 354 352 352 353 353 353 353 354 354 353 352 352 352 352 352 352 353 353 353 353 353 352 351 351 352 352 351 350 349 350 350 350 350 349 349 350 350 350 351 346 343 341 342 348 349 347 349 351 350 350 350 349 351 350 350 349 348 347 346 348 349 350 349 349 347 345 344 343
350 350 351 349 344 343 345 346 347 348 349 350 352 353 352 353 354 353 351 351 353 353 353 353 354 354 353 353 353 352 352 352 352 353 353 353 353 352 351 351 351 352 352 352 350 348 348 349 350 350 350 350 349 349 350 350 346 342 341 342 349 349 347 350 350 349 350 350 349 350 349 349 349 347 346 346 348 349 349 348 348 346 345 343 342
351 351 352 350 347 346 347 348 349 349 350 352 353 352 352 353 353 352 350 351 353 353 353 354 354 354 354 353 353 352 352 352 352 353 353 353 352 352 352 351 351 352 352 352 350 348 348 348 349 350 349 349 349 349 349 350 347 342 341 344 349 350 347 350 351 349 350 350 349 349 349 349 348 346 346 347 348 348 349 348 348 346 344 343 341
351 351 350 351 349 347 349 351 351 352 352 353 353 353 352 352 351 351 351 352 353 352 354 354 354 354 353 353 353 351 351 351 352 352 353 351 351 353 352 351 351 351 352 352 350 348 348 348 349 350 350 349 348 349 348 348 345 341 341 345 351 350 347 349 351 350 350 350 349 349 349 348 347 345 346 347 348 349 349 349 348 346 343 343 342
351 349 350 352 350 350 351 352 352 353 354 355 354 353 352 352 351 351 353 353 352 352 354 353 353 353 352 353 352 351 352 352 351 352 353 351 351 352 352 352 351 351 351 350 349 347 347 347 348 350 349 349 348 349 348 347 342 340 341 345 351 350 348 349 350 349 348 349 349 349 349 347 346 346 347 348 349 349 349 349 347 346 344 344 342
349 348 350 352 352 352 351 352 353 353 354 355 354 353 352 352 352 351 352 352 352 353 352 352 352 352 352 352 352 353 353 352 352 352 353 352 352 352 352 353 352 351 350 349 348 347 347 347 347 349 349 348 348 348 348 347 342 340 341 344 349 350 349 348 350 350 348 349 348 348 349 347 346 346 347 348 349 349 349 348 348 346 345 344 343
349 349 350 351 352 353 353 353 353 353 354 355 353 353 353 352 352 351 351 352 351 352 352 351 352 353 351 352 352 353 352 352 352 352 352 353 353 352 352 354 353 352 350 348 346 345 345 346 348 349 349 349 349 348 349 349 344 340 341 344 347 348 348 347 349 350 349 348 347 348 349 347 347 347 347 348 348 348 347 348 348 347 346 345 343
349 349 350 351 352 352 353 353 352 353 354 354 354 353 352 351 351 351 351 351 352 352 353 353 353 352 352 351 351 352 352 351 352 352 352 353 352 351 352 353 353 352 351 350 347 345 346 346 348 349 349 350 349 349 349 349 345 340 341 344 346 347 347 347 347 349 350 349 348 349 348 346 347 346 347 348 347 347 347 347 348 347 346 345 345
348 348 349 350 351 351 353 354 353 353 353 353 354 353 352 352 351 352 352 352 353 352 353 353 351 351 352 351 352 353 353 352 353 353 353 353 352 351 353 353 353 353 352 351 350 349 349 349 350 350 349 349 348 347 347 346 344 341 341 344 345 346 346 346 346 347 349 350 349 349 347 346 347 347 348 348 347 347 347 346 346 346 346 346 346
349 347 347 348 349 351 353 354 353 352 353 352 353 353 351 352 352 353 353 353 353 352 351 351 351 352 352 353 354 353 353 353 353 353 353 352 352 352 352 352 352 352 351 351 351 350 351 351 350 348 347 347 346 345 346 345 343 342 343 346 346 346 347 346 346 346 346 348 348 345 345 347 347 347 348 347 347 347 347 346 346 346 346 347 347
348 347 347 347 349 352 353 355 355 354 354 353 354 354 350 351 351 352 353 351 351 352 351 351 352 353 353 353 353 352 354 355 354 353 352 352 352 352 351 351 351 351 351 351 352 351 350 349 348 347 347 346 346 346 344 344 344 344 346 347 347 347 346 346 348 347 346 347 346 341 342 344 345 346 346 347 347 347 348 347 346 346 347 347 347
348 346 346 347 350 353 354 353 354 355 354 352 354 354 351 352 353 353 353 352 351 352 353 354 354 354 354 354 351 352 354 354 356 354 352 353 352 352 352 350 351 351 351 351 350 350 348 346 346 348 349 348 350 350 347 348 347 348 349 348 348 347 346 347 347 347 347 348 344 338 339 341 342 345 346 347 348 347 347 347 346 346 346 346 347
348 347 346 348 351 352 353 352 352 355 355 353 354 355 353 355 355 354 353 353 353 353 354 355 356 354 354 354 352 354 354 352 356 356 352 352 349 349 350 348 349 349 349 349 348 347 345 345 347 349 352 351 351 351 349 350 350 349 349 348 348 347 348 347 347 347 347 348 343 338 339 340 340 340 343 345 346 347 348 347 345 345 345 346 346
348 347 347 348 351 351 351 353 355 356 355 355 355 354 355 354 355 354 353 354 353 353 353 354 356 354 353 354 352 353 354 351 352 353 351 350 348 348 349 348 348 349 350 351 350 349 347 349 350 350 351 351 349 348 347 348 348 349 348 348 349 348 348 346 347 348 349 348 343 340 341 340 339 338 338 340 343 346 347 346 345 344 344 345 346
348 346 346 348 350 351 351 353 356 356 355 356 355 354 355 354 354 354 353 353 354 352 352 354 358 357 354 354 352 352 351 351 351 352 353 351 351 350 351 351 350 351 353 353 352 352 353 352 350 349 349 349 348 349 348 348 348 349 349 349 349 348 348 346 347 348 349 348 343 342 342 341 339 338 338 338 340 344 345 346 345 345 345 345 346
347 347 347 348 349 350 351 353 355 356 356 355 354 355 355 355 355 355 353 353 354 352 352 355 357 357 354 351 351 352 350 351 352 353 353 352 351 351 352 352 352 352 352 352 352 353 352 350 349 348 348 348 347 350 349 348 349 349 350 351 350 350 348 348 347 348 349 347 342 343 343 343 341 338 339 339 340 343 345 346 346 346 346 345 346
348 346 347 347 348 349 350 352 353 354 355 354 353 355 354 354 354 355 353 352 355 354 354 355 355 355 352 349 350 352 351 351 353 352 352 351 350 349 351 352 351 350 350 351 352 352 351 350 350 349 349 347 347 348 348 348 349 348 350 351 350 351 350 349 348 348 349 347 341 342 343 343 343 340 339 339 339 341 344 346 346 347 346 347 346
348 347 346 347 347 348 349 350 353 352 353 355 355 354 354 354 353 354 354 353 354 353 354 354 354 355 351 348 348 349 351 351 351 351 351 351 349 350 350 351 350 349 350 352 351 352 352 351 351 351 350 349 348 348 346 347 348 347 349 351 350 351 350 351 350 348 349 347 342 341 343 343 344 342 340 339 340 339 340 342 345 346 346 347 346
348 348 345 345 346 347 349 351 354 353 354 356 355 354 354 354 353 353 354 354 354 353 354 353 351 352 351 350 347 347 348 349 350 350 350 351 349 349 350 350 350 350 352 351 352 352 351 350 350 351 350 349 348 348 347 345 346 345 346 349 350 350 350 351 350 349 348 349 346 341 342 343 343 344 342 341 340 340 340 338 339 342 344 345 345
348 347 345 345 346 347 348 350 354 354 355 355 354 354 355 354 354 354 355 354 354 354 353 350 348 348 350 352 352 351 350 349 351 350 350 350 349 349 350 350 351 353 352 350 352 353 351 350 351 352 349 349 349 347 348 345 344 344 344 346 348 349 350 350 350 349 347 349 348 341 340 343 343 344 344 343 342 342 342 340 337 337 338 340 342
349 347 345 345 347 346 348 351 353 354 354 354 353 355 355 355 355 355 355 354 355 354 350 347 347 347 351 354 355 355 354 353 355 353 351 351 350 351 351 351 353 352 352 352 352 352 352 352 352 352 350 351 351 349 349 347 344 344 343 344 346 347 349 350 349 347 346 348 350 346 341 341 343 344 344 344 344 344 344 343 341 339 338 338 338
348 347 345 345 347 347 347 350 352 353 352 352 353 354 355 355 355 354 353 355 355 350 347 346 348 350 353 355 356 357 357 358 359 357 353 354 353 352 351 352 354 352 352 353 353 353 353 352 353 354 352 351 351 350 350 347 345 344 342 343 345 346 347 349 347 345 345 346 350 350 345 342 341 342 343 344 343 344 345 344 344 343 342 341 340
348 347 346 344 346 347 348 350 352 353 352 351 352 353 353 354 353 352 352 355 353 348 347 347 351 354 354 355 356 358 358 359 361 358 355 353 353 352 352 353 354 353 353 353 354 352 351 352 353 352 351 352 350 349 349 346 345 344 342 342 344 345 346 348 347 345 345 344 348 350 350 348 345 342 342 343 344 344 344 344 344 344 344 343 343
349 348 346 345 345 346 348 349 351 353 352 350 351 351 351 352 351 350 353 354 350 347 349 350 353 354 354 356 356 357 359 360 361 359 356 354 353 354 353 353 354 355 354 352 352 350 350 351 350 350 350 350 349 349 348 345 344 343 343 342 343 345 346 347 347 346 346 344 345 347 350 352 351 347 345 343 343 344 344 344 343 344 344 344 344
349 349 348 346 344 345 348 348 350 351 351 350 349 349 350 350 348 349 352 351 347 348 348 350 353 352 353 356 356 356 359 361 361 360 358 354 354 354 352 354 355 356 354 352 352 351 351 352 350 349 350 350 350 349 348 346 343 343 343 342 343 345 345 346 347 347 346 344 344 345 347 350 352 352 350 347 344 343 343 343 343 344 343 344 344
349 349 349 347 344 345 347 348 350 350 350 350 350 350 350 349 348 349 350 348 347 348 347 348 351 351 352 355 356 357 359 361 361 361 357 354 353 353 354 357 355 353 354 354 353 352 352 353 352 350 351 352 349 349 349 346 345 343 343 342 344 345 345 347 348 347 346 345 344 345 346 347 350 352 352 351 350 347 344 342 342 343 343 343 344
349 350 351 348 344 346 346 347 350 350 350 351 352 352 351 350 348 348 348 346 346 346 347 348 348 349 352 354 355 358 359 361 361 360 358 355 354 353 354 357 355 353 354 354 352 352 352 352 353 352 353 354 349 347 348 346 345 344 343 343 344 345 345 348 349 347 346 346 345 345 346 347 348 349 349 350 351 351 348 344 341 340 342 343 344
350 350 351 349 346 347 347 347 350 351 350 354 354 353 353 352 350 348 347 345 344 344 346 346 347 348 349 352 355 356 358 361 361 360 359 356 354 353 352 355 356 355 354 353 352 353 352 351 353 354 355 354 349 346 347 346 344 344 344 344 345 345 346 346 348 348 347 346 346 346 347 348 347 348 348 349 349 350 351 348 343 340 340 341 342
351 351 353 350 347 347 346 347 349 351 352 355 356 354 354 353 350 349 348 346 344 345 345 345 347 346 348 353 356 355 357 361 362 360 359 357 355 354 354 355 356 358 357 353 352 353 353 352 354 356 356 353 348 346 346 344 344 343 344 344 345 346 346 346 348 349 347 346 346 345 345 347 347 348 349 349 348 350 351 350 348 346 345 344 345
352 352 353 352 349 349 348 348 350 350 353 356 356 353 353 352 349 348 349 348 345 345 346 346 347 347 349 354 356 356 357 360 361 361 361 360 358 355 358 357 355 358 358 351 351 354 353 353 355 358 358 353 347 346 345 345 344 343 344 345 345 346 347 347 348 349 348 346 345 344 344 344 346 346 346 347 348 349 351 351 350 349 349 349 348
352 352 354 352 351 350 348 350 350 350 353 355 354 351 349 350 347 346 347 347 347 346 346 346 347 348 352 355 356 356 357 359 360 361 360 360 359 358 361 360 356 359 359 355 354 357 353 353 356 357 356 354 350 345 345 346 345 344 345 345 345 346 347 347 348 348 347 346 345 345 344 343 344 345 344 345 346 347 348 350 349 348 349 349 349
353 353 354 354 352 350 348 351 352 351 353 354 352 350 348 347 347 346 344 344 346 346 346 345 345 349 353 356 356 356 357 358 358 358 358 358 359 360 362 361 359 359 359 358 358 358 356 356 356 355 354 353 351 347 345 346 346 346 346 346 345 346 346 347 347 347 346 345 346 345 344 344 345 344 345 344 346 346 346 347 348 347 349 349 349
354 353 355 355 353 351 349 352 353 351 353 353 351 349 347 346 344 343 342 341 344 344 343 343 344 347 352 355 356 356 358 357 357 357 357 359 359 361 361 360 360 359 359 361 360 361 362 360 357 354 354 352 351 349 347 346 346 344 344 346 346 346 346 347 347 346 346 345 345 345 344 344 345 345 345 345 345 345 345 346 346 347 348 348 348
354 353 355 356 353 352 351 351 352 351 353 354 351 348 347 347 344 343 342 341 342 342 342 343 344 345 349 353 355 357 358 357 358 357 356 358 360 361 361 360 360 360 361 363 361 361 362 359 356 355 353 350 351 350 347 345 345 345 346 346 345 345 347 347 346 345 345 345 345 345 344 344 345 345 346 346 346 346 345 346 348 349 349 349 348
353 353 354 355 353 352 354 353 351 351 353 355 352 348 348 348 346 344 343 343 344 343 343 344 344 344 347 352 354 357 358 357 357 357 357 359 360 361 361 361 361 360 361 361 359 359 359 357 357 357 355 351 351 352 349 345 345 346 347 347 345 346 346 344 344 345 344 344 344 344 344 344 344 346 346 345 345 345 345 347 348 349 349 350 349
353 354 354 354 353 351 355 354 352 351 351 354 354 349 350 351 349 348 345 345 347 346 345 344 345 345 345 349 353 355 357 357 357 357 357 359 360 361 361 359 359 359 359 359 360 360 358 356 357 358 357 354 354 355 352 346 346 346 346 347 346 345 346 346 346 348 346 345 343 343 344 344 344 346 346 346 345 345 345 346 347 348 348 349 349
354 355 353 354 353 352 355 355 354 352 350 352 354 350 351 352 350 349 347 347 348 348 347 344 343 345 343 344 349 354 356 356 356 357 357 358 360 361 360 359 358 358 357 357 358 358 356 356 357 358 359 358 357 359 355 349 348 348 345 344 344 343 344 345 346 348 349 347 345 343 344 344 344 345 345 345 344 344 344 344 345 345 347 348 349
354 355 353 354 354 354 356 356 356 353 350 353 354 352 352 353 351 348 346 346 346 346 347 344 341 342 343 343 346 350 355 356 354 356 358 358 360 361 360 359 358 358 357 356 355 355 357 358 359 360 361 361 359 359 358 353 349 348 346 344 344 344 343 343 344 347 348 349 347 344 343 343 342 344 344 345 343 343 343 345 345 344 345 347 349
354 354 354 354 355 356 357 358 356 354 353 354 355 352 351 353 351 347 345 345 343 342 344 342 340 340 342 343 345 348 354 357 355 355 357 358 359 360 360 359 358 358 357 355 354 354 356 359 360 360 361 360 358 358 359 357 352 349 347 347 347 346 345 344 345 345 345 347 347 345 343 343 343 344 343 343 342 342 343 344 345 344 343 344 348
354 354 354 354 354 357 360 359 358 355 355 356 356 353 352 353 352 347 344 343 343 341 341 342 342 341 343 345 346 349 354 357 355 354 356 357 358 359 360 359 359 359 358 356 354 354 354 357 359 360 361 361 360 358 357 357 355 352 349 350 351 349 347 346 346 345 346 348 346 344 344 343 344 344 344 343 343 343 343 344 344 344 344 344 346
355 355 355 355 355 357 360 361 360 357 356 357 358 355 353 352 352 349 347 344 343 342 341 344 345 344 345 347 348 350 352 355 356 354 355 356 357 359 359 359 358 359 359 357 356 355 355 354 356 358 361 362 362 360 358 356 356 355 352 352 352 350 348 347 347 345 344 345 347 346 345 344 344 343 344 345 344 343 343 342 342 343 343 345 345
Wind_Speed
14 16 18 17 16 16 17 17 18 20 20 20 21 21 21 21 21 19 18 16 16 17 18 16 15 15 16 16 16 16 16 16 15 14 14 13 14 13 13 13 12 12 12 11 10 10 9 9 9 10 10 11 11 11 11 12 11 11 11 11 11 11 10 10 11 12 12 12 13 13 12 13 14 14 14 16 15 14 15 15 15 15 15 15 16
17 17 18 19 18 17 17 19 19 19 20 20 20 20 20 20 20 19 17 16 17 18 17 16 16 17 17 17 16 16 16 15 14 13 13 13 13 13 13 13 12 12 12 11 11 11 10 11 11 11 11 12 12 12 12 12 12 11 11 11 11 11 9 10 11 11 12 13 14 14 12 14 14 12 12 14 13 12 13 14 14 14 14 16 18
19 19 18 19 19 18 19 21 20 19 19 20 19 20 20 19 19 18 17 17 17 17 16 16 17 17 17 16 16 16 15 14 14 12 12 12 13 13 13 13 13 12 12 11 11 12 12 13 12 12 12 12 12 12 12 11 12 11 11 11 11 11 10 11 11 11 11 13 14 13 13 13 14 12 12 13 13 12 13 13 13 15 16 16 18
21 20 19 20 21 20 21 22 20 20 20 20 20 20 20 19 18 17 17 17 17 16 16 17 17 16 16 15 15 15 14 13 13 12 12 12 13 13 13 13 13 12 11 12 12 12 13 14 14 13 12 13 12 12 12 11 11 11 11 10 11 11 10 12 12 11 10 12 13 12 12 13 13 13 14 14 13 13 14 15 16 18 19 18 19
22 21 20 21 22 23 22 21 21 20 20 19 19 19 18 17 17 17 16 17 16 16 15 16 16 15 15 15 15 14 13 13 12 11 11 12 13 13 13 13 12 12 11 12 12 12 14 14 14 13 12 12 12 12 12 12 12 12 11 11 11 11 12 13 12 11 10 12 14 11 11 13 13 13 15 15 13 13 15 18 19 20 20 19 20
23 22 21 21 22 24 22 21 21 20 19 19 18 18 17 16 16 16 16 16 16 15 15 15 15 14 14 14 14 13 12 12 11 11 11 12 12 12 13 13 12 11 12 13 12 13 14 13 13 14 12 11 12 12 12 12 12 12 12 12 11 12 14 13 12 10 12 12 11 11 11 13 13 13 15 15 14 14 15 18 20 20 20 19 19
23 23 22 22 22 23 22 21 21 20 19 18 18 18 17 17 16 16 16 16 15 14 14 14 14 14 13 13 13 12 12 12 11 11 11 12 12 12 13 12 12 11 12 13 11 12 13 12 12 13 12 11 11 12 11 12 12 11 11 11 11 13 13 12 10 8 12 11 8 11 12 13 14 14 15 15 15 16 17 19 19 19 18 17 17
22 22 22 23 22 23 23 22 21 20 19 18 18 18 17 17 16 16 15 14 14 14 14 14 14 13 13 13 13 12 11 11 11 11 11 12 12 12 12 12 12 12 12 12 11 11 12 12 12 12 12 11 11 12 11 12 11 11 10 11 12 13 12 11 9 10 13 11 9 12 13 14 14 15 16 16 17 18 19 19 19 19 18 17 17
23 22 22 22 23 24 23 21 20 19 19 18 18 17 17 16 15 14 14 13 14 14 14 13 13 13 12 12 12 11 11 11 11 11 11 11 11 11 12 12 11 12 12 12 12 12 12 12 12 11 12 11 11 12 11 11 11 11 10 11 12 12 11 12 12 13 13 9 11 13 14 15 14 14 15 16 17 16 15 15 17 18 17 17 18
23 23 22 21 22 22 21 20 19 19 18 18 17 16 15 14 14 13 13 14 14 14 14 13 13 12 12 12 12 11 11 10 11 11 10 11 11 11 11 12 12 12 12 11 12 12 11 11 11 11 11 12 12 11 11 11 11 10 10 12 12 12 12 15 15 13 11 10 12 13 15 16 15 14 14 15 15 13 13 14 16 17 17 17 18
22 22 21 21 22 21 20 19 18 17 17 16 15 15 14 14 13 12 14 14 14 14 13 13 13 12 11 11 11 11 10 10 10 10 10 10 10 10 11 12 12 12 12 11 12 11 11 11 10 11 11 11 11 11 12 11 10 10 10 12 13 13 15 17 15 11 12 14 15 14 14 16 16 15 15 15 15 14 15 15 16 17 17 17 17
21 20 20 21 21 19 19 18 17 16 16 15 14 14 14 14 13 13 14 15 14 13 13 13 12 11 11 11 11 11 10 10 10 10 10 10 10 11 11 12 11 11 11 11 11 11 11 11 10 10 11 11 12 12 13 11 10 10 10 13 14 14 16 17 13 12 14 15 14 14 14 15 15 15 15 15 15 15 15 15 16 16 16 16 16
21 20 20 20 20 19 18 18 17 16 16 15 14 13 14 15 14 14 15 15 14 13 12 12 12 11 11 11 10 11 11 11 10 10 10 10 11 11 11 11 11 11 11 10 10 11 11 11 11 11 11 12 12 12 13 12 10 10 11 14 14 14 16 17 14 14 14 14 14 14 14 15 15 16 15 14 14 15 15 15 15 15 15 15 16
21 21 20 20 19 19 18 17 17 16 16 15 14 14 14 15 15 16 15 14 14 13 13 12 12 11 11 11 11 12 11 11 10 10 11 11 11 12 11 11 10 11 11 10 10 11 11 11 11 11 12 12 13 13 13 12 11 11 10 13 14 13 15 16 14 15 15 13 15 15 15 15 15 16 14 13 13 14 14 14 14 15 14 14 15
22 22 21 20 21 19 18 17 17 17 16 15 15 15 15 15 15 16 15 14 14 13 13 12 12 11 12 12 12 12 11 11 10 11 11 10 12 12 12 11 10 11 10 10 10 11 12 12 12 11 12 12 13 13 13 13 12 11 10 12 13 13 14 15 14 15 15 14 15 15 15 15 15 15 14 14 13 13 13 13 14 14 14 13 14
23 23 22 21 22 20 19 18 17 17 16 15 15 16 16 16 15 16 16 15 14 14 13 13 12 12 13 12 12 12 11 11 10 10 10 10 11 11 12 11 11 11 9 9 10 11 13 13 13 12 11 12 13 13 13 13 12 11 10 11 14 14 12 14 14 13 14 14 15 15 15 14 14 14 14 14 13 12 13 13 13 13 13 13 13
23 23 22 22 22 21 20 19 18 18 16 15 15 16 16 16 15 15 16 15 14 14 14 13 12 12 12 12 12 11 11 11 10 10 10 10 11 11 11 12 13 13 11 9 10 12 13 12 13 13 11 11 12 12 13 12 11 11 11 11 14 16 13 14 15 13 13 15 15 15 13 12 13 14 14 13 12 12 12 12 12 12 12 12 12
23 22 23 22 21 21 20 20 20 19 18 16 15 15 16 15 14 15 15 14 14 14 13 13 12 12 12 12 12 12 11 11 11 11 10 10 10 11 11 11 12 13 13 12 11 12 12 11 12 11 10 11 11 11 12 11 11 11 12 13 15 16 14 13 15 15 14 14 15 14 12 12 13 13 13 12 12 12 12 12 12 11 11 11 11
22 22 22 21 20 20 20 20 20 19 18 17 16 15 15 14 14 14 15 14 14 13 13 13 12 13 13 13 13 12 11 11 11 11 10 10 10 11 11 11 11 12 13 13 14 13 12 10 10 9 9 10 11 11 11 11 11 11 13 14 14 15 13 12 15 16 15 14 15 14 13 13 12 12 11 11 11 11 11 11 11 11 10 10 10
20 21 21 20 19 19 20 19 19 19 17 17 17 16 15 14 14 13 14 14 14 13 13 13 13 13 13 13 13 12 11 11 10 10 10 10 11 11 11 11 11 11 12 12 13 14 13 12 11 10 11 11 11 11 11 11 10 11 13 13 12 11 10 10 14 15 14 14 14 15 15 14 12 11 11 11 11 11 11 11 11 10 10 9 9
19 19 19 19 19 19 19 19 19 18 16 17 17 16 16 15 15 14 14 14 14 14 13 13 13 13 13 14 14 13 11 10 10 10 10 10 11 10 10 10 10 11 11 11 11 12 13 13 12 12 13 13 13 12 12 12 11 12 13 12 10 9 9 10 12 14 15 14 15 15 15 14 12 11 10 10 10 10 10 10 10 10 9 8 8
19 18 18 18 18 19 18 19 20 17 16 17 17 16 16 16 15 15 14 14 13 13 12 12 13 13 14 13 13 13 12 10 9 9 10 10 10 10 10 10 10 10 10 10 11 11 12 12 12 12 12 12 12 11 11 11 11 11 11 10 9 8 9 10 11 14 16 15 15 16 14 13 12 11 10 9 9 9 10 10 9 8 8 8 8
19 18 18 18 17 18 17 18 18 17 17 16 15 16 17 17 17 16 14 14 13 12 12 12 12 13 14 13 11 12 11 11 10 8 9 9 9 10 9 9 10 10 10 10 10 11 12 11 11 11 9 8 9 9 9 7 7 9 10 9 7 8 9 10 11 13 15 15 15 15 15 13 12 11 10 9 8 8 8 8 8 7 8 7 7
19 18 18 18 17 17 17 17 17 17 16 15 15 16 16 16 17 16 15 15 14 11 11 11 11 11 11 12 13 10 10 11 11 11 10 9 8 9 10 9 9 9 9 8 8 10 10 8 8 8 7 6 8 9 9 8 7 9 8 8 7 8 8 9 11 12 14 14 14 14 14 14 12 12 10 10 8 7 7 7 6 6 7 7 7
19 18 18 18 17 17 17 17 17 17 15 14 15 15 14 13 13 14 14 14 13 11 11 10 9 9 8 10 13 12 12 11 10 12 10 9 9 9 10 9 8 7 8 7 5 6 6 5 6 6 6 6 7 8 8 8 8 8 8 8 8 7 8 9 10 12 13 13 13 13 13 13 12 11 10 10 9 8 7 7 6 5 6 6 6
19 18 18 18 18 17 17 18 17 16 14 15 15 14 14 13 12 12 14 14 12 12 11 10 9 8 7 9 11 12 14 11 8 9 8 8 8 8 9 7 7 5 6 6 5 5 6 5 5 4 5 5 6 6 6 7 8 8 8 8 7 7 8 8 9 11 13 12 12 11 11 12 11 11 10 10 9 9 8 7 7 6 6 5 4
19 18 19 18 19 18 18 18 17 17 15 15 15 14 13 13 12 12 13 13 12 12 10 10 10 8 8 9 8 9 10 10 8 7 7 7 8 9 7 5 7 6 4 5 4 3 5 6 4 3 4 5 6 6 6 7 7 8 8 7 7 7 7 7 8 10 12 11 11 10 10 10 10 10 9 9 9 9 8 7 7 6 6 5 4
19 19 20 19 19 19 18 18 17 18 16 14 14 14 13 12 13 12 12 12 12 11 10 10 10 8 8 8 6 6 7 7 7 6 5 5 6 7 6 4 8 7 4 4 4 4 4 4 4 3 4 5 5 5 5 6 6 7 7 6 7 6 7 7 7 9 11 11 9 9 9 9 9 9 8 8 8 8 8 7 7 7 6 5 5
20 20 20 20 20 19 19 18 17 17 16 14 14 14 13 12 13 12 12 12 11 11 11 11 10 8 8 6 4 5 5 6 5 4 3 3 3 4 3 3 6 5 4 4 3 4 4 4 3 3 4 3 3 5 4 5 5 5 6 6 7 6 6 6 6 8 10 10 9 8 8 8 8 8 8 7 7 7 7 7 7 7 6 6 5
20 20 20 20 20 20 20 18 17 16 15 15 14 14 13 13 13 12 12 12 11 10 11 11 10 9 8 5 3 3 4 5 5 4 4 3 3 3 3 4 5 4 4 5 2 3 4 4 3 3 3 2 3 5 4 4 4 5 5 5 6 6 6 6 6 7 9 10 9 7 7 8 7 7 7 7 6 6 6 6 6 6 6 5 5
21 21 21 20 20 20 20 19 18 16 16 15 14 14 13 14 13 12 12 11 10 11 12 11 10 9 8 6 4 4 4 5 5 4 4 4 3 3 3 3 4 4 4 4 3 3 4 3 3 4 4 2 3 4 3 3 3 4 5 5 5 5 5 6 6 6 8 10 10 8 7 7 7 6 6 6 6 5 5 5 5 5 5 5 5
21 21 21 21 21 21 20 20 18 17 16 15 15 14 13 14 12 12 12 10 10 11 10 10 9 9 9 7 6 4 4 5 4 4 4 4 3 3 3 2 2 4 5 6 3 3 4 3 2 3 3 3 2 3 3 3 3 3 4 5 5 5 5 5 5 5 7 9 10 10 8 7 6 6 6 6 6 5 5 5 5 5 4 5 4
21 21 21 22 22 21 21 20 19 17 17 16 15 14 14 13 12 12 12 10 11 11 9 9 8 9 9 7 7 6 6 5 4 4 4 3 2 3 3 1 2 5 6 5 2 1 2 1 2 2 2 2 2 4 4 3 3 2 3 5 5 5 5 4 5 5 6 7 9 9 9 8 7 6 6 6 6 5 5 5 5 5 5 5 5
21 21 21 22 22 21 21 20 20 19 17 16 15 14 14 13 13 12 12 11 11 11 10 9 8 9 9 8 7 6 6 5 4 3 2 3 3 2 1 1 4 5 3 3 3 2 2 3 3 3 2 2 2 4 5 4 3 3 3 5 5 4 4 4 4 5 5 6 7 7 8 9 8 7 6 5 5 6 6 6 5 5 6 6 6
21 22 23 23 22 21 21 20 20 20 18 17 16 14 14 13 13 12 12 12 11 10 10 10 10 10 9 9 8 7 6 5 4 2 2 3 3 2 0 3 5 3 2 2 3 4 3 3 4 2 3 4 2 3 5 4 4 3 3 4 4 3 4 4 4 5 5 5 5 5 6 7 7 7 7 5 5 5 6 6 6 5 6 6 6
22 23 23 23 23 22 21 20 21 21 18 17 16 14 14 13 13 12 12 12 10 10 10 10 10 10 10 9 8 7 6 5 4 3 3 3 3 3 2 3 3 2 3 2 2 4 3 3 4 4 3 4 3 3 4 4 4 3 3 4 4 3 4 4 3 4 5 5 5 5 5 5 5 5 6 5 5 5 4 5 6 6 6 6 6
23 23 24 24 24 22 21 21 21 21 19 17 16 14 14 13 12 12 12 12 11 10 10 10 10 10 9 10 9 7 6 5 5 4 3 2 3 3 4 4 2 2 2 1 3 5 3 3 4 4 3 2 3 3 4 4 4 3 4 4 4 3 3 3 3 3 4 4 4 4 4 4 4 4 4 4 5 5 3 3 4 5 6 6 6
23 23 24 24 24 23 22 21 21 21 20 18 16 15 14 13 12 12 12 12 11 10 10 10 10 10 9 10 10 8 6 5 5 4 3 2 3 3 4 4 3 2 2 2 4 4 2 3 3 3 2 2 3 3 4 4 3 3 4 4 3 2 2 2 2 2 3 3 3 3 4 4 4 4 3 3 4 4 3 2 2 4 5 5 5
24 24 25 24 23 23 22 21 22 22 20 18 16 15 15 13 13 12 12 12 11 10 10 10 9 9 10 10 10 8 7 6 5 5 3 3 3 3 3 4 3 2 2 3 4 4 2 1 2 2 2 2 3 3 4 4 3 3 4 4 3 1 1 1 2 2 2 2 2 3 3 3 2 3 2 2 3 3 4 3 2 3 5 5 4
24 25 25 25 24 24 23 21 22 22 21 19 17 16 15 14 14 13 13 12 11 9 9 10 9 8 9 10 10 9 8 7 6 5 4 3 2 3 3 2 2 2 1 3 4 5 4 2 2 2 1 1 3 3 3 3 4 4 3 3 2 1 1 0 1 2 2 2 2 2 3 3 3 2 2 2 2 2 3 3 2 3 4 5 4
25 26 26 27 25 25 25 23 23 23 22 21 19 18 17 16 15 15 14 13 12 11 9 9 9 9 9 10 10 9 9 8 7 6 5 3 2 2 3 2 2 2 1 2 4 4 3 2 3 2 1 1 2 3 3 3 4 3 2 2 2 1 1 0 1 2 2 2 3 2 1 3 3 3 3 2 2 2 3 3 3 3 3 3 3
27 27 27 28 27 26 26 24 24 24 22 21 20 19 18 17 16 15 15 14 13 12 11 10 9 10 10 9 10 10 9 9 8 7 6 5 4 3 3 3 2 1 1 0 2 3 1 1 2 1 1 1 1 2 3 2 2 3 2 1 2 1 0 1 1 2 3 2 3 3 2 1 2 3 3 3 2 3 3 3 2 2 3 3 3
28 29 28 28 27 26 26 25 25 24 23 22 21 20 18 17 16 14 14 14 13 12 11 10 9 9 10 10 10 10 10 9 9 8 7 6 5 4 4 4 3 3 2 1 1 1 1 1 1 1 0 1 1 2 2 1 0 2 2 1 1 2 0 1 2 3 3 3 2 3 3 2 2 2 1 2 2 2 2 2 2 1 2 2 3
29 30 29 29 28 27 27 26 25 24 23 22 21 20 18 17 15 14 13 12 12 13 11 11 11 9 10 11 11 10 10 10 9 9 8 7 6 5 4 5 5 4 3 2 2 2 2 2 2 2 1 2 3 2 3 2 0 1 1 1 1 1 0 1 3 3 3 3 3 3 3 2 3 2 2 2 1 2 2 2 2 2 2 3 3
30 31 31 30 28 28 28 27 26 25 23 23 22 21 19 17 15 14 13 10 11 13 12 12 12 11 11 12 12 12 11 10 10 10 9 8 7 6 5 5 5 5 4 4 3 3 3 3 3 3 3 4 4 1 3 3 2 1 0 1 0 1 2 1 1 0 2 3 4 3 3 3 4 4 3 4 3 3 4 4 4 4 4 4 4
31 31 32 31 29 29 29 28 27 26 24 24 24 22 20 20 18 16 16 13 12 13 14 13 13 12 12 11 12 12 12 11 11 10 10 8 8 7 6 6 5 6 6 5 4 3 3 3 3 3 4 4 3 1 1 2 2 2 2 1 0 0 1 2 2 1 2 3 3 4 5 4 5 5 4 5 4 4 4 4 4 5 5 5 4
32 31 31 31 30 30 30 29 27 26 26 25 25 24 22 21 21 19 18 17 15 14 14 13 12 12 12 12 12 13 13 12 11 11 10 9 9 8 8 7 6 6 6 6 5 4 4 4 4 3 3 2 2 1 2 3 2 2 4 3 2 1 1 2 1 1 1 2 3 4 5 4 5 6 6 5 5 5 5 5 4 5 6 6 5
32 32 32 32 32 31 31 30 28 27 27 27 27 26 24 23 22 21 19 18 17 15 14 13 12 11 12 12 12 13 13 13 12 11 11 10 10 9 9 8 7 7 7 7 7 5 4 3 4 3 3 2 3 3 3 1 2 2 3 3 3 2 1 2 1 1 1 1 2 4 3 3 3 4 4 4 4 4 4 5 5 5 5 6 6
32 33 32 32 32 31 32 31 29 28 28 28 29 28 26 24 23 22 20 19 18 16 15 14 13 12 11 12 12 12 13 13 13 12 12 12 11 10 10 9 8 7 7 7 7 6 5 4 4 4 4 4 4 4 3 2 2 2 2 2 2 2 3 3 2 2 1 1 2 2 1 3 4 2 1 3 3 3 3 6 7 6 6 6 7
31 32 32 32 32 32 32 33 31 30 29 30 30 29 27 25 24 24 23 20 18 17 15 15 15 14 12 12 12 12 12 13 14 14 13 12 12 11 11 10 10 9 8 7 7 7 6 6 6 5 5 5 5 5 4 4 4 2 2 3 2 2 2 2 3 2 1 0 2 3 2 2 1 3 1 2 2 2 4 4 5 6 7 6 6
31 31 31 31 33 33 33 34 32 30 30 31 31 30 28 26 25 25 25 23 20 18 17 16 16 16 15 14 14 14 13 13 13 14 14 14 13 13 12 11 11 10 9 8 7 7 7 7 7 7 7 6 5 5 5 5 4 4 3 3 4 4 3 2 3 2 2 3 3 3 3 4 3 2 2 2 3 5 6 5 6 7 7 6 7
Wind_Direction
133 135 134 134 132 133 132 130 130 131 130 128 128 128 128 129 128 125 124 124 126 124 120 116 112 109 107 105 103 101 102 102 102 102 101 99 98 96 93 90 88 85 82 82 80 81 83 86 89 87 82 83 90 91 91 92 92 92 88 86 85 83 83 84 85 85 85 86 83 81 92 101 97 93 94 98 100 100 98 105 110 103 100 98 93
133 132 131 136 136 137 136 134 133 131 130 129 130 129 130 129 127 124 121 119 122 122 117 114 111 108 106 105 104 104 105 105 104 102 101 102 101 97 93 90 88 86 84 83 81 84 86 87 90 91 89 89 92 92 90 90 92 89 87 89 90 89 86 82 81 86 91 91 86 84 96 103 99 92 89 92 91 92 96 104 104 95 94 96 97
131 129 130 137 136 135 133 131 132 129 128 131 132 132 134 132 127 124 121 118 119 119 113 110 108 107 107 107 108 109 109 106 104 102 101 103 101 96 93 90 87 86 85 84 83 85 87 86 86 86 89 93 91 89 90 90 90 89 87 88 91 92 90 87 88 91 88 86 88 88 96 100 96 90 88 89 88 91 95 97 94 91 93 94 94
130 128 130 135 132 130 130 131 131 128 129 133 135 136 137 133 128 125 122 119 119 116 110 110 110 109 109 110 111 111 109 106 104 102 101 102 100 96 93 89 87 87 85 83 82 84 86 87 87 86 85 88 89 89 90 88 87 86 85 86 89 91 89 89 92 93 86 84 90 91 95 98 93 90 89 88 89 91 91 91 91 93 95 93 91
128 129 132 132 130 130 131 133 131 129 131 133 136 137 136 131 127 124 121 121 121 116 113 114 113 111 111 111 112 111 109 107 104 102 101 100 98 97 93 87 85 86 83 81 81 84 85 85 87 87 84 85 88 88 88 85 80 77 78 83 85 87 87 91 95 93 87 85 90 94 98 100 94 90 91 89 89 90 91 93 92 92 92 92 90
128 131 133 133 134 135 134 134 132 131 133 132 132 133 132 128 124 123 123 123 122 118 117 117 114 112 112 113 113 111 110 108 105 102 99 98 96 96 94 88 85 83 79 80 82 83 84 87 91 92 88 87 89 87 87 84 79 77 78 82 83 86 91 94 92 88 84 81 85 95 98 99 97 91 91 90 89 90 91 92 91 91 91 90 89
129 131 134 134 137 137 135 134 132 133 132 131 129 129 128 127 125 125 126 124 122 120 119 118 115 114 114 115 114 112 112 109 106 102 98 95 95 96 94 90 86 84 81 82 85 86 89 93 96 98 96 92 91 88 86 84 81 80 78 81 83 83 87 84 78 83 86 77 74 91 97 98 98 93 89 91 91 91 91 91 91 90 90 90 89
130 131 131 131 133 134 133 133 131 132 131 129 128 128 128 127 127 128 129 127 124 122 121 120 117 115 115 115 114 115 114 111 109 104 99 96 96 96 95 92 88 87 84 83 86 88 91 94 94 95 94 92 90 87 84 84 82 79 77 80 82 81 77 69 64 72 74 74 76 82 90 92 92 92 90 93 94 93 92 91 91 89 90 93 93
132 129 128 126 129 130 129 130 129 129 129 129 129 130 130 129 130 132 131 128 125 123 122 120 119 118 117 117 118 120 118 115 110 104 99 98 96 96 97 95 91 89 88 84 84 87 87 89 93 93 92 92 91 90 87 85 83 81 80 79 81 79 71 65 65 72 72 80 92 91 99 99 93 93 96 100 97 91 87 88 90 93 94 94 95
132 129 128 126 129 129 128 129 129 129 130 131 132 132 131 132 134 135 131 127 126 125 124 123 122 120 120 120 121 121 118 115 109 104 101 99 98 98 99 97 93 91 92 87 85 89 90 90 93 93 93 95 93 94 91 86 85 83 84 83 79 73 73 73 69 77 87 89 92 97 104 103 97 94 98 101 98 90 87 90 94 97 97 95 94
130 128 128 128 131 130 130 130 129 131 132 131 130 131 132 134 134 133 131 129 127 126 127 126 122 120 121 122 120 120 116 113 110 107 104 101 100 99 98 98 97 95 96 91 88 91 94 94 94 93 93 93 92 95 92 84 82 81 83 84 75 68 75 78 73 82 91 88 92 94 94 98 99 97 98 97 95 93 92 94 96 97 96 94 94
128 126 126 127 130 130 130 129 130 132 131 130 129 134 136 134 131 131 130 128 126 126 127 125 122 121 122 121 121 121 117 115 111 108 107 104 102 100 98 100 100 98 98 97 93 92 95 97 95 94 95 94 94 95 93 86 79 77 80 83 75 67 75 80 81 88 89 91 98 98 95 98 99 99 99 96 96 96 95 97 97 97 96 95 96
129 126 125 125 128 131 131 131 132 133 132 131 131 135 135 135 133 131 131 128 127 128 129 126 125 126 125 123 122 121 118 114 110 109 107 104 102 100 99 100 102 102 101 100 94 91 94 97 97 95 93 96 97 94 92 89 82 76 79 86 79 67 75 84 86 87 88 92 96 100 101 100 102 102 99 98 97 98 98 99 99 97 97 97 97
131 129 128 127 131 134 134 134 134 134 133 132 134 133 131 135 136 132 130 129 131 132 130 128 129 130 129 125 120 116 114 112 111 110 107 105 104 101 100 101 104 108 108 103 94 90 92 94 96 97 94 97 100 96 92 90 84 76 79 88 85 73 77 85 88 89 89 93 97 99 101 103 108 106 103 100 96 97 100 100 100 99 99 99 98
135 134 132 131 134 137 138 138 137 136 135 134 135 132 130 132 134 133 131 131 132 130 128 129 132 132 129 124 118 114 114 114 112 108 108 110 108 105 106 108 107 108 110 106 99 95 95 92 90 95 97 98 97 95 92 87 81 77 78 86 88 82 80 87 91 91 92 95 98 100 102 109 113 109 106 101 96 97 100 101 101 100 99 98 98
138 137 135 135 137 141 142 141 140 138 137 135 133 131 131 132 134 134 132 133 131 129 128 130 133 132 128 123 119 117 116 115 112 110 110 112 111 111 112 115 110 106 108 100 97 97 95 94 90 92 95 96 94 93 92 87 83 83 82 86 91 88 81 88 95 91 94 96 98 102 106 113 114 110 106 99 100 101 101 102 101 102 100 99 98
140 139 137 140 141 143 144 144 144 140 137 134 132 131 131 133 135 133 132 134 131 131 130 131 135 132 126 122 121 118 116 115 113 110 109 109 109 112 114 114 111 109 107 92 84 83 83 88 91 93 95 97 95 93 95 92 90 90 87 85 88 91 87 88 96 97 95 95 96 100 105 113 115 111 106 100 104 105 103 104 103 103 101 99 98
141 142 141 144 145 145 145 146 146 141 139 137 135 133 133 134 133 131 133 134 133 133 133 135 136 132 129 126 123 119 118 116 112 110 108 109 107 108 108 105 106 108 108 102 91 81 77 79 83 89 95 98 99 97 98 99 96 94 91 86 84 91 94 91 95 99 97 94 94 97 103 112 115 113 110 108 110 109 107 106 105 105 101 100 100
144 145 144 147 147 146 145 146 146 144 144 142 141 139 138 137 135 134 134 137 137 136 136 138 136 134 132 126 123 120 116 112 110 110 110 109 106 104 104 103 104 107 109 112 111 107 104 97 90 92 94 95 95 96 97 98 97 97 96 91 87 88 96 100 95 96 96 93 94 97 99 104 111 116 114 114 115 111 110 110 109 107 104 103 103
146 148 148 149 148 146 146 147 148 149 148 143 143 143 143 142 140 141 139 142 142 142 143 139 137 136 133 128 125 121 114 111 111 111 110 109 107 105 104 106 105 105 107 109 112 116 118 114 108 101 96 93 93 94 94 95 95 98 101 95 89 89 97 106 100 97 97 95 95 96 95 100 108 117 119 118 118 115 114 114 112 111 109 108 106
149 151 150 150 149 149 151 151 151 150 148 145 144 145 147 146 146 147 146 145 144 146 145 140 140 140 136 133 129 125 122 119 116 111 109 109 108 106 103 105 106 106 104 103 103 106 111 112 109 105 102 98 94 93 91 91 93 96 98 93 90 94 98 100 101 102 101 96 95 95 93 95 99 106 113 118 121 121 118 117 117 116 113 112 109
152 153 151 152 150 152 154 152 150 148 148 147 145 148 151 151 152 152 150 148 147 147 147 148 148 145 142 139 134 129 128 128 122 116 112 111 107 104 104 104 103 101 102 100 99 99 103 106 105 109 110 107 105 101 96 88 86 92 91 89 94 98 99 97 101 104 101 100 100 99 96 93 92 94 99 106 113 119 120 121 122 122 122 119 111
155 154 154 154 154 155 156 151 148 148 151 149 147 152 156 158 157 154 155 152 149 151 153 157 155 154 152 148 143 131 132 133 130 132 124 119 112 108 109 107 103 97 95 93 92 93 96 101 103 109 111 117 130 119 108 100 89 98 93 90 100 101 103 102 101 102 102 106 106 105 103 100 97 95 95 98 103 111 119 127 129 129 129 121 112
157 155 155 156 156 157 156 151 150 152 153 151 151 155 160 162 158 155 157 153 152 158 157 158 162 165 157 150 147 137 139 136 133 140 133 129 123 117 116 110 110 107 103 100 96 96 97 102 99 112 124 124 147 135 109 104 96 104 102 97 103 103 105 104 105 107 107 111 113 111 109 105 102 99 98 99 103 109 118 127 136 138 131 124 121
158 157 157 156 158 159 157 154 153 155 155 154 156 158 159 158 156 156 155 152 156 163 158 158 165 168 156 145 146 140 139 135 132 136 136 142 141 133 128 120 119 117 123 117 104 113 115 120 99 112 147 130 139 144 118 105 96 100 106 102 102 102 103 105 111 113 113 116 118 116 114 111 107 104 100 98 100 105 111 115 131 145 136 132 132
160 159 158 158 161 162 159 158 157 158 159 157 158 158 158 156 158 159 154 153 159 162 160 159 160 161 153 144 144 141 142 144 135 130 136 148 148 139 124 119 123 101 112 106 80 110 107 113 110 96 136 126 105 111 106 102 99 99 101 100 100 99 101 104 112 116 118 120 121 120 118 116 114 110 106 101 99 101 104 106 119 135 134 131 132
161 161 160 160 164 165 161 160 161 162 162 159 158 158 158 159 158 159 156 155 158 161 162 158 156 156 151 148 144 142 144 145 140 138 153 153 148 142 124 135 139 104 94 95 63 92 90 93 115 98 101 104 94 91 91 94 94 98 98 99 100 99 101 105 111 117 121 123 124 124 123 123 121 117 112 107 103 103 104 105 112 121 124 123 120
162 162 162 163 166 166 162 163 164 163 161 159 161 158 160 161 157 160 159 157 161 162 160 155 153 152 151 155 152 145 139 138 144 152 162 147 137 139 136 150 131 113 110 102 75 86 85 89 107 115 96 89 96 97 94 96 96 96 97 101 102 101 103 107 113 118 124 127 128 128 129 130 127 124 120 115 110 105 104 105 108 111 111 111 108
163 164 164 164 168 165 163 166 165 164 162 160 162 159 160 161 158 160 158 161 166 159 156 154 152 151 151 159 156 147 141 136 141 143 136 115 103 111 110 97 94 96 99 90 85 89 88 93 91 96 101 96 103 103 100 101 101 95 96 103 107 108 108 111 114 119 128 133 133 134 134 134 135 136 131 126 121 115 111 107 106 106 107 107 103
165 166 166 166 168 166 166 167 166 166 163 162 162 160 160 160 160 159 157 165 165 154 155 155 154 154 152 156 135 121 132 125 122 118 110 102 100 90 81 84 85 87 89 86 74 75 89 103 88 81 95 107 109 111 112 105 103 96 92 98 106 112 115 118 120 123 132 137 140 141 137 137 140 143 141 140 136 129 123 119 116 114 114 113 110
166 168 167 167 168 167 168 168 167 168 165 164 162 160 160 159 160 159 159 164 159 157 160 157 156 154 151 150 122 94 101 108 104 106 110 104 95 89 73 74 90 85 78 81 62 53 69 74 67 67 80 89 100 110 115 107 102 96 98 100 104 112 117 124 128 130 135 138 142 144 142 144 148 146 144 148 149 146 142 140 140 136 135 135 132
167 170 168 167 169 169 168 167 168 169 167 165 161 161 162 160 160 158 161 161 158 162 162 157 153 145 142 144 132 106 94 100 93 93 99 92 88 87 78 77 101 92 80 71 50 44 54 52 56 57 80 92 102 117 112 105 101 98 108 105 103 107 109 121 128 126 127 135 146 151 150 150 152 152 151 155 154 158 163 162 162 162 164 162 160
170 170 169 169 170 170 169 168 169 169 170 167 163 163 161 161 161 159 161 159 159 163 161 154 146 140 143 143 140 122 107 107 97 99 98 89 98 85 79 96 80 79 86 80 81 112 63 54 73 65 92 115 129 128 118 115 115 108 100 96 99 103 105 114 122 127 131 139 149 155 156 156 160 162 164 168 162 166 177 177 177 181 188 186 185
170 170 172 172 171 171 168 170 170 170 173 168 165 164 162 162 163 161 161 160 162 163 160 156 148 149 152 146 144 134 120 119 112 114 103 95 108 90 63 80 73 65 69 80 100 107 64 54 63 68 96 91 111 121 120 122 110 86 77 90 99 102 103 105 113 125 130 132 142 152 154 157 168 173 173 174 171 177 184 186 189 192 197 199 202
171 170 173 174 173 172 170 172 170 171 173 169 167 167 164 164 165 164 162 163 165 164 163 161 157 156 156 151 149 146 134 127 126 115 106 122 134 149 125 69 80 79 70 67 69 74 71 57 41 36 86 86 92 106 111 115 100 83 68 83 98 101 96 97 113 125 127 130 141 153 153 159 172 178 182 190 189 190 193 193 197 200 206 210 211
173 170 172 174 175 172 172 172 169 172 173 169 168 168 167 167 168 165 163 166 166 166 167 165 163 162 160 156 153 153 145 138 137 128 138 152 152 161 137 82 78 89 82 58 67 84 75 36 29 38 70 86 97 99 112 116 110 111 105 100 101 96 90 94 117 124 127 135 142 150 157 164 167 170 184 200 199 197 204 205 209 210 212 219 222
173 171 172 175 176 172 174 174 169 172 172 169 168 167 170 169 168 167 166 169 169 170 170 169 168 165 162 157 158 161 158 152 144 148 176 172 164 165 139 124 133 127 114 78 92 96 65 33 37 46 54 66 94 113 131 129 126 134 127 114 104 98 92 88 104 116 122 136 150 152 155 160 159 167 182 188 191 204 227 225 220 224 224 226 232
173 174 173 175 176 172 175 174 170 171 170 170 168 167 170 168 169 170 169 173 177 176 171 172 170 168 170 163 164 169 166 163 155 161 180 170 174 171 136 143 151 132 160 130 94 94 65 57 52 35 26 39 81 118 131 126 133 140 127 115 103 96 90 90 103 117 133 146 157 154 147 153 161 168 176 171 177 200 229 256 250 240 238 236 241
175 175 173 175 176 172 174 173 171 172 169 168 168 168 169 170 171 170 169 176 184 180 171 175 175 170 169 161 164 174 175 172 168 170 178 177 179 161 124 137 145 134 172 147 113 119 131 102 84 60 32 50 79 107 118 123 129 122 119 118 114 99 80 103 139 130 142 150 151 168 159 145 160 167 169 173 168 175 197 235 268 247 245 246 257
177 175 173 175 175 172 173 173 173 173 169 168 169 171 171 172 174 171 171 176 182 182 176 177 180 174 164 160 168 178 179 179 177 177 184 189 180 161 138 132 157 167 166 139 126 136 152 166 124 85 24 75 101 110 118 119 109 100 106 121 122 138 117 71 167 152 155 154 151 185 168 139 149 170 172 182 186 173 177 197 212 222 239 248 269
178 177 175 176 176 174 174 173 173 173 171 171 173 175 175 174 176 177 175 176 179 180 181 181 181 176 163 164 174 179 181 184 185 182 184 188 181 165 152 163 193 184 158 121 111 118 134 124 108 98 324 118 117 132 125 103 113 127 147 157 148 166 175 171 194 176 178 177 159 161 159 139 145 165 175 171 174 193 184 185 196 200 211 239 276
179 179 178 178 177 175 175 173 173 175 174 174 175 177 179 178 179 181 178 177 179 180 183 187 184 174 166 170 177 181 185 186 191 192 188 188 193 192 174 183 205 197 219 194 95 105 133 142 120 140 193 169 156 135 120 114 143 148 134 164 170 154 188 199 211 202 192 194 176 163 158 152 147 147 161 162 166 197 197 180 185 186 185 211 242
180 180 180 179 178 177 176 174 175 177 176 176 177 179 181 181 181 183 181 178 180 183 183 187 190 179 173 181 184 185 187 190 196 197 194 194 196 202 189 185 199 212 220 216 157 151 180 203 204 229 214 247 231 143 144 217 252 104 114 165 185 151 203 246 234 230 202 203 217 188 171 180 171 146 164 194 184 187 185 171 175 198 206 213 217
181 181 181 180 180 179 177 176 177 178 178 178 178 180 180 180 183 184 187 183 177 182 184 185 193 188 180 185 189 190 191 195 199 197 196 196 196 203 203 192 193 202 205 201 203 190 191 207 212 213 199 268 253 163 157 204 2 53 135 233 220 145 119 174 184 224 219 205 225 213 188 209 196 174 223 233 212 197 190 196 203 217 233 233 228
183 182 183 182 182 180 178 177 179 179 180 179 178 180 178 179 182 182 189 189 175 179 187 187 190 193 190 188 191 195 196 198 201 199 198 196 197 204 208 204 196 200 204 208 213 192 192 209 206 204 199 233 252 157 139 189 170 73 320 286 245 95 29 38 121 204 263 230 229 214 195 234 216 184 226 244 233 230 209 201 208 219 230 230 234
185 184 184 185 183 181 179 178 179 180 181 180 178 178 178 178 179 179 184 186 180 182 190 191 188 192 196 192 191 196 198 199 200 200 199 198 201 205 209 210 205 206 209 215 221 202 205 211 203 213 215 229 259 51 143 190 151 145 195 204 189 235 3 2 21 35 327 300 270 224 198 231 227 191 219 238 221 229 226 212 214 220 221 220 225
184 184 185 187 185 182 179 178 179 181 182 181 179 178 179 180 181 182 183 185 186 187 191 195 192 193 197 195 194 196 199 201 201 202 202 202 204 205 207 212 209 208 211 218 223 212 206 205 203 214 222 226 241 250 217 177 149 190 209 199 205 252 331 332 326 18 340 333 314 271 219 209 228 210 213 228 223 223 217 211 230 233 219 214 220
183 184 186 187 186 182 180 179 178 181 183 182 181 181 181 182 185 188 189 191 194 192 192 198 200 199 199 199 197 197 199 202 204 203 204 204 205 205 206 210 214 211 209 215 222 223 212 195 201 212 219 218 214 239 256 205 182 205 211 221 224 226 253 266 299 353 328 352 326 287 237 181 227 232 221 235 239 228 201 201 232 252 240 224 219
184 184 186 186 185 183 180 180 179 181 182 182 183 184 184 185 187 191 195 198 200 199 197 200 204 204 201 201 201 197 198 202 205 205 205 206 205 205 205 207 213 214 213 217 219 221 219 207 210 215 218 221 214 227 250 249 246 214 181 227 253 237 237 246 227 210 247 355 331 298 224 193 199 186 239 262 245 242 230 209 213 235 250 238 227
186 184 185 185 184 183 181 181 181 181 182 182 183 185 186 187 189 193 197 199 200 202 201 199 201 203 202 201 200 199 200 204 206 206 207 208 207 206 206 208 212 213 216 222 220 217 219 218 223 225 223 224 221 221 229 234 245 252 202 194 227 242 246 265 259 238 215 268 280 301 306 280 199 139 202 264 250 268 272 239 219 235 243 235 233
186 184 185 185 184 183 182 182 182 181 182 182 183 186 187 189 191 194 197 199 199 200 201 198 196 198 199 200 201 200 203 206 207 207 209 209 210 209 208 210 211 213 216 221 223 219 217 218 221 226 229 229 228 227 233 238 236 247 243 203 211 229 217 235 261 265 263 258 270 295 308 319 320 293 260 265 265 267 265 255 249 253 251 244 246